Погода в Долгокыче

Россия / Забайкальский край     51°04′10″N   116°25′05″E
темп.,
°C
ветер,
м/с
пор.,
м/с
влажн.,
%
обл.,
%
осадки,
мм/ч
давл.,
гПа
погр.,
м
18 мая, вт
вт1800:00+8сз6144850 0.0 1001386
03:00+4с3356100 0.0 100336
06:00+4ссв1156100 0.0 100311
09:00+9зсз344087 0.0 1004892
12:00+10зсз563263 0.0 10031687
15:00+11зсз7103797 0.0 10022208
18:00+13зсз8122257 0.0 10013073
21:00+8сз48275 0.0 1002142
19 мая, ср
ср1900:00+5ссв113065 0.0 100410
03:00+5всв2229100 0.0 100412
06:00+6в222799 0.0 100331
09:00+10ююв3724100 0.0 1000569
12:00+7ююв3769100 1.1 999841
15:00+4св2389100 9.0 1000215
18:00+7ссз587281 0.0 10001015
21:00+6с11750 0.0 100110
20 мая, чт
чт2000:00+4ююв11775 0.0 100310
03:00+3ю3382100 0.0 100430
06:00+4ююв2282100 0.0 100617
09:00+9ю3458100 0.0 1003459
12:00+13ююз6947100 0.0 10011602
15:00+17юз693895 0.0 10001888
18:00+19юз4739100 0.0 9961653
21:00+10в3687100 1.9 1000126
21 мая, пт
пт2100:00+8св3592100 0.3 1001114
03:00+7всв3495100 0.3 100190
06:00+8всв3108891 0.1 998295
09:00+13вюв7126450 0.1 997605
12:00+19юв684550 0.0 9961236
15:00+25вюв8113255 0.0 9912211
18:00+24в65370 0.0 989661
21:00+15св476357 0.0 991141
22 мая, сб
сб2200:00+8ссв3591100 0.0 994125
03:00+8ссз2392100 0.1 995197
06:00+7зсз3391100 0.1 996297
09:00+6ссз3590100 1.7 998351
12:00+5с478586 0.1 999417
15:00+10сз566885 0.2 999913
18:00+10зсз4657100 0.1 9991501
21:00+7зсз3751100 0.1 1000162